Accueil
METAR-TAF:

METAR-TAF

Aéroports :

Turin, Italie

latitude: 45-05-20N, longitude: 007-36-20E, altitude: 288 m

Observation

Le bulletin a été fait il y a 8 heures et 14 minutes, à 16:50 UTC
Vent 3 kt de nord-est, variant entre nord-ouest et est/sud-est
Température 23°C
Humidité 69%
Pression 1012 hPa
Visibilité 10 km ou plus
Nuages fragmentés à une hauteur de 2500 ft
averses à proximité

METAR: LIMA 031650Z 04003KT 310V110 9999 VCSH BKN025 23/17 Q1012

Heure: 03:04 (01:04 UTC)


TAF: absent

Observations et prévisions météorologiques de plus de 4000 aéroports (messages METAR et TAF).

Les stations disponibles sont représentées par des disques jaunes et rouges sur la carte.

Passer la souris dessus pour voir le nom de la station.

Cliquer dessus pour voir les observations et prévisions météorologiques.

Pour changer de carte: cliquez sur les boutons verts avec une croix noire pour zoomer, sur le bouton vert avec un tiret pour effectuer un zoom arrière, ou sur les flèches vertes pour les cartes adjacentes.


METAR-TAF: